This demonstration page uses our WeatherBlox Daily Observations layout. Learn more.

Left ArrowRight Arrow

Hourly Observations for March 23, 2022

Temp ( °F °C ) Dew Point ( °F °C ) Humidity (%) Winds ( mph kmh ) Pressure ( in mb ) Visibility ( mi km ) Precip ( " mm )
12:59 am 00:59 Mostly Cloudy 56 13.3 45 7.2 67 67 SSE 6 9 30.13 1020 10 16 0.00 0.00
1:59 am 01:59 Mostly Cloudy 56 13.3 47 8.3 72 72 S 7 11 30.14 1021 10 16 0.00 0.00
2:59 am 02:59 Mostly Cloudy 57 13.9 49 9.4 74 74 S 7 11 30.11 1020 10 16 0.00 0.00
3:59 am 03:59 Mostly Cloudy 57 13.9 49 9.4 74 74 SSW 6 9 30.11 1020 10 16 0.00 0.00
4:59 am 04:59 Mostly Cloudy 58 14.4 50 10 75 75 S 6 9 30.09 1019 10 16 0.00 0.00
5:59 am 05:59 Mostly Cloudy 56 13.3 50 10 81 81 SSE 6 9 30.08 1019 10 16 0.00 0.00
6:59 am 06:59 Mostly Cloudy 55 12.8 50 10 83 83 SSE 6 9 30.08 1019 10 16 0.00 0.00
7:59 am 07:59 Sunny 58 14.4 52 11.1 81 81 SSE 9 15 30.09 1019 10 16 0.00 0.00
8:59 am 08:59 Mostly Cloudy 61 16.1 53 11.7 75 75 S 7 11 30.09 1019 10 16 0.00 0.00
9:59 am 09:59 Mostly Cloudy 65 18.3 52 11.1 63 63 S 8 13 30.09 1019 10 16 0.00 0.00
10:59 am 10:59 Mostly Cloudy 68 20 53 11.7 59 59 SSE 8 13 30.08 1019 10 16 0.00 0.00
11:59 am 11:59 Mostly Cloudy 69 20.6 53 11.7 57 57 SSW 6 9 30.09 1019 10 16 0.00 0.00
12:59 pm 12:59 Mostly Cloudy 69 20.6 54 12.2 59 59 SSE 7 11 30.06 1018 10 16 0.00 0.00
1:59 pm 13:59 Partly Cloudy 71 21.7 55 12.8 57 57 SSE 8 13 30.04 1017 10 16 0.00 0.00
2:59 pm 14:59 Mostly Cloudy 70 21.1 56 13.3 61 61 SE 10 17 30.01 1016 10 16 0.00 0.00
3:59 pm 15:59 Cloudy with Light Rain 67 19.4 56 13.3 68 68 SE 6 9 30.01 1016 6 10 0.00 0.00
4:49 pm 16:49 Cloudy with Light Rain 64 17.8 59 15 84 84 SE 6 9 30.00 1016 3 4 0.08 2.03
4:59 pm 16:59 Cloudy with Light Rain 64 17.8 59 15 84 84 SSE 8 13 29.99 1016 3 4 0.09 2.29
5:03 pm 17:03 Cloudy with Light Rain 64 17.8 59 15 84 84 SE 7 11 30.00 1016 4 6 0.00 0.00
5:59 pm 17:59 Cloudy 64 17.8 61 16.1 90 90 SE 10 17 29.96 1014 8 13 0.01 0.25
6:59 pm 18:59 Cloudy 65 18.3 61 16.1 87 87 SSE 9 15 29.96 1014 9 14 0.00 0.00
7:59 pm 19:59 Cloudy 66 18.9 61 16.1 84 84 SSE 12 19 29.95 1014 10 16 0.00 0.00
8:59 pm 20:59 Cloudy 68 20 62 16.7 81 81 SSE 12 19 29.94 1014 9 14 0.00 0.00
9:59 pm 21:59 Cloudy 69 20.6 62 16.7 78 78 S 16 26 29.93 1013 9 14 0.00 0.00
10:59 pm 22:59 Cloudy 69 20.6 63 17.2 81 81 S 13 20 29.93 1014 10 16 0.00 0.00
11:59 pm 23:59 Cloudy 70 21.1 63 17.2 79 79 S 12 19 29.92 1013 10 16 0.00 0.00

Powered by AerisWeather